Regional Weather Roundup
Issued by NWS

Home | Current Version | Previous Version | Graphics & Text | Print | Product List | Glossary On
Versions: 1 2 3 4 5 6 7 8 9 10 11 12 13 14 15 16 17 18 19 20 21 22 23 24 25 26 27 28 29 30 31 32 33 34 35 36 37 38 39 40 41 42 43 44 45 46 47 48 49 50
000
ASUS43 KFSD 011710
RWRSD

WEATHER ROUNDUP FOR SOUTH DAKOTA
NATIONAL WEATHER SERVICE SIOUX FALLS SD
1200 PM CDT MON SEP 01 2014

NOTE: "FAIR" INDICATES FEW OR NO CLOUDS BELOW 12,000 FEET WITH NO
SIGNIFICANT WEATHER AND/OR OBSTRUCTIONS TO VISIBILITY.


SDZ001>005-009-010-012>017-011800-
NORTHWEST AND NORTH CENTRAL SOUTH DAKOTA

CITY           SKY/WX    TMP DP  RH WIND       PRES   REMARKS
BUFFALO          N/A     68  46  45 N12       29.85R
FAITH            N/A     70  51  51 W12       29.88R
MOBRIDGE       SUNNY     70  54  56 NW9       29.80S
$$

SDZ012>016-024>037-041>051-057-063-072>074-011800-
SOUTHWEST AND SOUTH CENTRAL SOUTH DAKOTA

CITY           SKY/WX    TMP DP  RH WIND       PRES   REMARKS
RAPID CTY ARPT MOSUNNY   70  47  43 N12       29.94S
PIERRE         SUNNY     72  56  57 W13       29.84F
CUSTER         CLOUDY    61  38  42 W5        30.03S
ELLSWORTH AFB  PTSUNNY   69  48  47 VRB6      29.95R
PHILIP         MOSUNNY   73  54  51 W12       29.89S
PINE RIDGE     SUNNY     69  52  54 SW7       29.96S
WINNER         FAIR      73  54  51 W6        29.90R
$$

SDZ004>011-016>023-039-040-011800-
NORTHEAST SOUTH DAKOTA

CITY           SKY/WX    TMP DP  RH WIND       PRES   REMARKS
ABERDEEN       SUNNY     70  57  63 SW6       29.79S
WATERTOWN      SUNNY     71  57  61 W8        29.81R
SISSETON         N/A     74  54  49 N6        29.77R
$$

SDZ017-020-022-023-036>040-048>070-011800-
SOUTHEAST SOUTH DAKOTA

CITY           SKY/WX    TMP DP  RH WIND       PRES   REMARKS
SIOUX FALLS    MOSUNNY   73  61  65 W8        29.85R
HURON          SUNNY     72  55  55 NW5       29.84R
CHAMBERLAIN    SUNNY     69  57  65 W7        29.88S
MITCHELL       SUNNY     72  61  68 W8        29.86R
YANKTON        SUNNY     72  63  73 W13       29.85S
$$

ABBREVIATIONS USED IN REMARKS
   TC - TEMPERATURE IN CELSIUS
  WCI - WIND CHILL INDEX
   HX - HEAT INDEX
  VSB - VISIBILITY



USA.gov is the U.S. government's official web portal to all federal, state and local government web resources and services.